Wind_Speed
8 7 7 8 8 7 7 7 7 6 5 4 2 2 3 4 5 6 6 7 7 7 7 8 7 7 7 7 7 7 6 6 5 5 4 4 5 6 7 8 8 8 9
9 10 10 9 9 8 8 7 7 6 5 3 2 1 3 4 5 5 6 7 7 7 8 8 7 7 7 7 7 6 6 6 5 4 4 4 5 6 6 7 7 8 9
11 12 12 11 10 10 9 8 7 5 4 2 1 1 2 4 5 5 6 7 7 8 8 8 8 7 7 7 6 6 6 5 5 4 3 4 5 6 6 7 7 8 8
12 13 13 12 12 11 10 8 7 5 4 2 1 1 2 4 5 5 6 7 8 8 8 8 8 7 7 6 6 5 5 5 4 3 3 4 5 5 7 7 7 8 8
11 13 14 14 13 12 11 9 7 6 4 2 1 1 3 5 6 6 7 8 8 9 8 8 8 8 7 6 6 5 4 4 2 2 2 3 4 5 7 7 8 8 8
12 13 15 15 14 13 11 10 8 7 4 2 1 2 3 5 6 7 8 8 8 9 9 9 8 7 7 7 6 5 4 3 2 1 1 2 3 4 6 7 8 8 8
13 14 16 16 15 13 12 10 9 7 5 3 1 2 3 5 6 8 8 8 9 9 9 9 8 7 7 7 6 4 3 3 2 1 1 2 3 4 5 7 8 8 8
14 16 17 16 15 14 12 10 9 7 5 3 2 2 4 5 7 8 8 8 9 9 9 8 7 7 6 6 6 5 4 3 3 2 2 3 3 4 5 7 7 7 8
16 17 17 16 16 15 13 11 9 7 5 3 3 3 5 6 7 8 8 8 9 8 8 7 7 6 6 6 5 5 4 4 3 3 3 4 4 5 6 7 7 8 8
17 17 17 16 16 16 14 12 10 8 6 4 4 4 5 6 7 8 9 9 8 8 7 6 6 6 6 6 5 5 5 5 4 4 4 4 5 6 7 7 8 8 9
17 18 17 17 17 16 15 13 10 8 7 5 5 5 6 7 8 9 9 9 8 7 6 5 5 5 6 6 6 6 5 5 4 4 5 5 6 7 8 8 8 9 9
17 18 18 18 18 17 15 13 11 9 8 7 6 6 6 7 8 8 8 8 8 7 6 5 4 5 5 5 6 6 6 5 5 5 5 6 7 8 9 10 9 10 10
18 19 19 19 19 18 16 15 13 11 9 8 7 6 7 7 7 7 8 8 7 6 5 5 4 5 5 5 5 5 5 5 5 5 5 6 7 9 10 10 11 11 11
19 21 21 21 20 19 18 16 14 13 11 9 8 7 7 7 7 7 7 7 6 6 5 4 4 4 3 3 4 4 5 6 6 6 6 6 7 8 9 10 11 11 11
19 22 22 22 22 20 19 18 16 14 12 10 9 8 8 7 7 7 8 7 6 5 4 4 3 3 3 2 3 3 4 5 6 5 6 6 8 8 8 9 10 11 11
18 22 23 24 23 22 21 20 18 16 13 11 10 9 8 7 7 7 7 6 5 4 4 3 3 2 1 1 1 2 4 4 5 6 6 6 7 7 8 9 9 10 11
16 23 25 25 24 24 23 22 20 17 15 13 11 9 8 8 7 7 6 5 4 4 3 3 2 1 0 0 0 1 3 3 5 5 6 6 6 6 7 8 8 9 10
14 21 25 25 24 24 23 22 21 18 15 13 11 10 9 8 7 6 6 5 4 3 2 1 1 1 1 1 1 1 1 2 4 5 6 5 5 5 6 7 8 8 9
14 19 22 24 24 24 24 23 20 18 16 14 12 11 9 8 7 6 5 5 4 3 2 0 0 1 2 2 2 2 2 3 4 5 5 5 4 4 5 5 6 7 8
13 18 22 24 25 25 24 23 20 18 16 15 13 11 10 9 7 6 5 4 3 2 1 1 1 2 3 3 3 3 4 4 4 4 4 4 4 3 3 4 5 6 6
15 19 21 23 25 25 24 22 20 19 17 15 13 12 11 10 8 7 6 5 4 3 2 2 2 3 3 3 3 4 4 4 4 4 4 3 3 2 2 3 4 5 6
13 18 20 22 23 23 23 22 21 20 17 15 14 13 12 10 9 9 8 7 5 4 3 3 3 3 4 4 3 3 3 3 3 3 3 3 2 1 2 3 4 4 5
13 15 18 21 21 22 23 22 21 19 17 16 15 13 12 11 10 10 9 8 7 6 5 4 4 4 4 4 3 3 2 2 2 2 2 1 1 2 3 3 4 4 5
11 13 17 19 21 22 22 21 20 19 17 17 15 14 13 12 12 11 10 9 8 7 6 5 4 4 4 4 3 3 3 3 2 2 2 2 3 3 4 5 5 6 6
8 11 15 18 20 21 21 21 20 18 17 16 15 14 13 13 13 12 11 10 10 9 8 7 6 5 5 5 4 4 4 4 4 4 4 4 5 6 6 7 7 8 8
6 10 13 16 18 20 20 19 18 17 16 16 15 14 13 13 13 13 12 12 11 11 11 10 9 9 8 8 8 7 7 8 8 8 8 8 8 8 9 10 10 10 11
Wind_Direction
207 205 209 205 197 185 167 151 139 131 125 113 84 40 10 354 349 346 343 342 342 344 346 350 356 4 9 13 17 21 24 28 31 43 62 85 110 120 126 126 124 125 121
218 212 211 210 203 193 178 162 149 141 134 123 96 36 360 348 344 342 339 337 338 339 340 344 347 355 1 5 10 14 14 16 23 45 69 101 119 127 130 134 132 133 128
225 217 211 210 204 196 183 170 162 154 148 141 119 18 353 343 338 335 334 335 336 338 340 342 344 348 353 356 2 7 10 13 18 44 75 106 121 132 140 142 139 138 133
227 219 214 211 204 197 187 178 171 166 160 160 163 343 338 335 333 332 333 333 334 335 338 340 340 342 344 346 350 356 2 6 17 46 80 109 127 140 147 149 147 144 137
224 222 219 213 206 199 191 181 173 169 168 177 222 319 328 330 331 332 332 333 333 333 334 333 333 333 334 337 338 340 346 0 21 58 88 122 135 145 156 158 155 151 144
219 220 219 211 205 198 190 181 174 173 179 188 244 317 327 328 328 328 328 330 331 331 331 329 329 327 326 327 330 329 333 349 19 46 107 157 156 157 165 170 164 159 153
217 215 217 209 202 196 190 182 178 179 186 193 241 307 321 324 324 322 324 327 328 327 327 328 327 323 321 321 323 320 317 313 313 284 186 181 180 176 177 175 173 168 164
216 216 214 207 203 198 192 186 184 185 190 200 241 292 312 318 319 320 322 324 325 325 324 325 323 321 319 318 318 313 300 289 283 255 219 208 206 205 195 189 184 181 178
214 213 209 204 201 198 193 190 189 191 194 207 244 284 303 311 313 314 318 319 319 320 322 324 323 322 316 315 314 306 290 282 274 248 230 224 215 213 205 200 193 194 192
210 207 204 202 200 197 194 194 194 194 198 217 250 278 294 303 307 308 310 313 315 318 321 323 322 319 310 308 305 300 285 274 269 242 227 220 218 215 210 211 206 204 202
213 207 203 202 202 200 197 195 197 199 206 224 251 271 286 297 305 305 305 309 311 312 317 321 319 317 309 299 294 290 280 266 259 242 227 221 220 216 210 212 215 214 211
210 206 204 204 202 201 201 201 202 204 214 228 247 264 282 294 302 304 306 307 310 309 311 314 309 308 308 301 290 283 274 259 251 238 227 223 221 216 211 214 220 221 219
211 208 207 206 202 201 203 205 205 210 218 229 245 261 275 285 294 299 304 305 307 307 307 309 306 303 304 298 284 276 264 252 239 233 224 222 221 214 209 213 217 221 221
216 210 205 205 203 203 206 205 207 213 221 231 245 258 266 274 283 292 299 302 303 304 308 314 314 304 301 294 271 261 255 245 230 226 225 222 216 211 208 209 212 216 220
217 210 205 202 203 205 207 208 210 214 221 233 242 251 261 265 272 285 291 294 300 305 311 317 318 315 307 279 254 249 243 231 222 217 221 215 210 211 211 210 212 215 220
217 211 205 203 204 205 207 209 213 217 223 232 241 251 255 255 263 276 286 293 298 303 311 316 320 328 336 294 239 241 236 220 212 212 212 206 203 212 213 214 215 218 221
220 212 206 204 205 207 208 210 214 217 224 233 240 244 246 250 256 266 279 286 291 298 305 314 320 332 5 72 135 217 221 211 205 201 202 200 201 207 211 213 215 218 223
218 210 206 204 203 207 210 213 217 217 222 230 233 236 241 246 249 257 268 272 279 285 291 305 329 30 95 98 108 139 173 182 189 184 183 183 189 199 205 213 218 221 226
213 205 204 202 203 208 210 212 215 216 219 222 226 230 233 236 241 249 255 258 265 264 263 244 81 105 106 111 114 115 130 143 150 161 166 173 183 192 201 211 222 224 227
210 206 202 200 201 205 208 210 213 215 217 220 223 225 228 230 233 237 241 247 243 230 211 169 144 131 122 119 118 117 120 126 134 139 149 160 175 187 204 220 231 229 234
207 203 201 202 201 204 205 208 211 213 214 216 219 224 226 227 229 229 232 232 220 206 191 167 156 147 135 133 127 123 121 122 126 129 139 150 160 181 209 222 233 239 243
197 197 198 198 199 201 203 204 207 208 212 216 221 226 224 226 224 223 227 222 212 202 189 172 163 153 143 139 139 137 135 131 132 134 139 147 163 195 230 238 239 244 249
189 194 197 196 197 200 201 204 205 207 211 216 220 221 221 222 221 221 221 217 210 202 194 189 185 174 164 160 162 167 164 158 146 148 163 188 221 248 256 255 253 254 254
187 191 193 193 198 198 199 203 205 207 212 216 218 219 221 222 222 221 220 217 213 209 207 207 205 199 196 194 193 193 194 200 199 204 234 255 262 264 262 261 262 262 261
186 190 192 194 195 195 200 206 206 207 209 212 216 218 220 221 221 221 221 220 219 219 219 222 227 232 235 233 230 228 228 235 241 246 257 269 272 271 269 267 267 267 267
176 180 183 189 192 196 200 204 206 208 209 214 218 219 220 221 222 224 227 226 227 228 230 234 240 248 253 253 253 252 253 255 258 262 265 270 273 275 274 273 271 270 268
Height
5877 5879 5881 5882 5882 5883 5883 5884 5885 5886 5888 5889 5890 5890 5891 5891 5892 5892 5892 5892 5892 5892 5891 5891 5890 5890 5890 5889 5889 5889 5888 5888 5887 5887 5886 5886 5887 5887 5888 5889 5891 5892 5892
5876 5877 5879 5880 5882 5882 5883 5883 5884 5886 5887 5888 5889 5890 5890 5891 5892 5892 5892 5892 5891 5891 5891 5890 5890 5890 5890 5889 5889 5889 5889 5888 5888 5887 5887 5887 5888 5888 5889 5890 5892 5893 5894
5875 5876 5877 5879 5880 5881 5882 5883 5884 5885 5886 5888 5889 5889 5890 5891 5891 5891 5891 5891 5891 5890 5890 5890 5889 5889 5889 5889 5889 5889 5889 5889 5888 5888 5888 5888 5889 5889 5890 5891 5893 5894 5895
5873 5874 5876 5877 5878 5880 5881 5882 5883 5884 5885 5887 5888 5888 5889 5890 5890 5890 5890 5890 5890 5889 5889 5889 5889 5889 5889 5889 5889 5889 5889 5889 5888 5888 5889 5889 5890 5890 5891 5892 5893 5895 5896
5871 5873 5874 5876 5877 5878 5879 5881 5882 5883 5884 5886 5887 5887 5888 5888 5888 5888 5888 5888 5888 5888 5888 5888 5888 5888 5888 5888 5889 5889 5889 5889 5889 5889 5890 5890 5891 5891 5892 5893 5894 5895 5897
5869 5871 5873 5874 5875 5877 5878 5879 5881 5882 5884 5885 5886 5886 5886 5887 5887 5887 5887 5887 5887 5887 5887 5887 5888 5888 5888 5888 5888 5888 5888 5889 5889 5890 5890 5891 5891 5892 5893 5894 5895 5896 5897
5866 5868 5871 5872 5874 5875 5877 5878 5880 5881 5883 5884 5885 5885 5886 5886 5886 5886 5886 5886 5886 5886 5886 5887 5887 5887 5887 5887 5887 5887 5888 5888 5889 5890 5890 5891 5892 5892 5893 5894 5895 5896 5897
5864 5866 5869 5870 5872 5874 5876 5877 5879 5880 5882 5883 5884 5885 5885 5885 5885 5885 5885 5885 5885 5885 5885 5885 5885 5885 5885 5886 5886 5886 5887 5887 5888 5889 5890 5890 5891 5892 5893 5894 5895 5896 5898
5861 5864 5866 5869 5871 5873 5875 5876 5878 5880 5881 5882 5883 5884 5884 5884 5884 5884 5884 5884 5884 5884 5884 5884 5884 5884 5884 5885 5885 5885 5886 5886 5887 5888 5889 5889 5890 5891 5893 5894 5895 5896 5898
5858 5861 5864 5866 5869 5871 5873 5875 5877 5879 5880 5881 5882 5883 5883 5883 5883 5883 5883 5883 5883 5883 5883 5883 5884 5883 5883 5883 5884 5884 5884 5885 5886 5886 5887 5888 5889 5890 5892 5893 5895 5896 5897
5855 5858 5861 5864 5867 5869 5872 5874 5876 5877 5879 5880 5881 5882 5882 5882 5882 5882 5882 5881 5881 5881 5882 5882 5883 5883 5882 5882 5883 5883 5883 5884 5884 5885 5886 5887 5888 5889 5891 5892 5894 5895 5896
5853 5856 5859 5862 5865 5868 5870 5872 5874 5876 5878 5879 5880 5880 5881 5881 5881 5881 5880 5880 5880 5880 5881 5881 5882 5882 5882 5881 5881 5881 5882 5882 5883 5884 5885 5886 5887 5888 5889 5891 5893 5894 5895
5850 5853 5857 5860 5863 5866 5868 5871 5873 5874 5876 5878 5878 5879 5879 5880 5880 5880 5879 5879 5879 5879 5880 5880 5881 5881 5881 5881 5880 5880 5880 5881 5882 5883 5884 5884 5885 5886 5888 5889 5891 5893 5894
5847 5850 5853 5857 5860 5863 5866 5868 5870 5873 5875 5876 5877 5877 5878 5878 5879 5878 5878 5878 5878 5878 5878 5879 5879 5879 5879 5879 5879 5879 5879 5880 5881 5882 5882 5883 5884 5885 5886 5888 5889 5891 5892
5843 5846 5850 5853 5857 5860 5863 5866 5868 5870 5873 5874 5875 5876 5877 5877 5877 5877 5877 5877 5877 5877 5877 5877 5878 5878 5878 5878 5878 5878 5878 5879 5880 5880 5881 5882 5883 5884 5885 5887 5888 5889 5891
5838 5841 5846 5849 5853 5857 5860 5863 5866 5868 5871 5872 5873 5874 5875 5875 5876 5876 5876 5876 5876 5876 5877 5877 5877 5877 5877 5877 5877 5877 5878 5878 5879 5879 5880 5881 5882 5883 5884 5885 5887 5888 5889
5834 5838 5842 5845 5849 5853 5856 5859 5863 5866 5868 5870 5871 5872 5873 5874 5874 5875 5875 5875 5876 5876 5876 5876 5876 5877 5877 5877 5877 5877 5877 5878 5878 5879 5880 5880 5881 5883 5883 5884 5885 5887 5888
5831 5834 5838 5842 5846 5850 5853 5857 5860 5863 5866 5868 5869 5871 5872 5873 5873 5874 5874 5875 5875 5875 5875 5875 5876 5876 5877 5877 5877 5877 5877 5877 5878 5878 5879 5880 5881 5882 5883 5884 5884 5886 5886
5827 5830 5834 5839 5843 5847 5850 5854 5857 5861 5863 5866 5867 5869 5870 5872 5872 5873 5874 5874 5874 5875 5875 5875 5875 5876 5876 5877 5877 5877 5877 5877 5878 5878 5879 5880 5881 5882 5882 5883 5884 5885 5885
5822 5826 5831 5835 5839 5844 5848 5852 5855 5859 5861 5864 5866 5867 5869 5870 5871 5872 5873 5874 5874 5874 5875 5875 5875 5876 5876 5877 5877 5878 5878 5878 5878 5879 5879 5880 5881 5881 5882 5882 5883 5884 5884
5819 5823 5827 5832 5837 5841 5846 5850 5853 5856 5859 5862 5864 5866 5867 5869 5870 5871 5872 5873 5874 5874 5874 5875 5875 5876 5876 5877 5878 5878 5878 5878 5879 5879 5880 5880 5881 5881 5881 5881 5882 5882 5883
5818 5821 5825 5830 5835 5840 5844 5847 5851 5854 5857 5860 5862 5864 5865 5867 5868 5870 5871 5872 5873 5873 5874 5875 5875 5876 5876 5877 5878 5878 5879 5880 5879 5879 5880 5880 5880 5880 5881 5881 5881 5881 5882
5817 5820 5824 5828 5832 5838 5842 5845 5849 5852 5855 5858 5860 5862 5863 5865 5867 5868 5870 5871 5872 5873 5874 5874 5875 5876 5877 5877 5878 5879 5879 5879 5879 5880 5880 5880 5880 5880 5880 5880 5880 5880 5880
5818 5820 5823 5827 5831 5835 5839 5843 5847 5850 5853 5856 5858 5860 5862 5863 5865 5867 5869 5870 5871 5872 5873 5874 5875 5876 5876 5877 5877 5878 5879 5879 5879 5879 5880 5879 5879 5879 5879 5879 5879 5879 5879
5819 5820 5822 5826 5830 5834 5839 5842 5845 5848 5851 5854 5856 5858 5860 5862 5864 5866 5867 5868 5870 5871 5872 5873 5874 5875 5876 5876 5877 5877 5877 5878 5878 5878 5878 5878 5878 5878 5878 5877 5877 5877 5877
5821 5822 5824 5826 5830 5834 5837 5841 5844 5847 5850 5853 5855 5856 5858 5860 5862 5864 5865 5867 5868 5869 5871 5872 5873 5873 5874 5875 5875 5876 5876 5876 5877 5877 5877 5876 5876 5876 5875 5875 5875 5874 5874